Skip Navigation Links
NOAA logo - Click to go to the NOAA homepage
NOAA's National Weather Service
Alaska Aviation Weather Unit
  NWS logo - Click to go to the NWS homepage
Left Navbar Graphic     21 AKDT = 05 GMT

   
NOAA is celebrating 200 years of science, service, and stewardship. Visit the NOAA 200th celebration Web site to learn more.
USA.gov is the U.S. Government's official Web portal to all Federal, state and local government Web resources and services.
Facebook
NWS on Facebook

Important Change Regarding the AAWU Web Presence

 

Over the last several months, the AAWU has been working to navigate its webpages to a nationally supported server. Security, as well as other needs, have necessitated the change.  In the process, we have made an effort to enhance the functionality of our website, as well as some of our products. As of June 27, 2017, aawu.arh.noaa.gov will be discontinued. The new AAWU web address is weather.gov/aawu. It is now live and will run in-parallel with the old site until it is discontinued. Please send any feedback or questions regarding the new webpages to nws.ar.aawu.webauthors@noaa.gov.  Thank you for your patience during this time of transition.
AAWU Home :: Display TAF Add Bookmark
TAF CYZP 250038Z 2501/2513 26012KT P6SM SCT040 TEMPO 2501/2513 BKN040
    RMK FCST BASED ON AUTO OBS. NXT FCST BY 250700Z=

METAR CYZP 242300Z AUTO 27012G17KT 9SM CLR 17/12 A3013 RMK SLP204= METAR CYZP 250000Z AUTO 26016KT 9SM OVC046 16/12 A3011 RMK SLP198= METAR CYZP 250100Z AUTO 27017KT 9SM SCT042 16/11 A3010 RMK SLP195= METAR CYZP 250200Z AUTO 27014G19KT 9SM SCT036 16/11 A3009 RMK SLP190= METAR CYZP 250300Z AUTO 26017KT 9SM CLR 15/10 A3008 RMK SLP187= METAR CYZP 250400Z AUTO 25017KT 9SM CLR 14/10 A3007 RMK SLP183= METAR CYZP 250500Z AUTO 25016KT 9SM CLR 13/09 A3006 RMK SLP181=
 Alaska TAF Map

NOAA's National Weather Service
Alaska Aviation Weather Unit
6930 Sand Lake Road
Anchorage, AK 99502-1845
Disclaimer
Credits
Glossary
Privacy Policy
About Us
Career Opportunities
Contact AAWU Internet Services Site last modified: April, 17th 2012